When you browse on this site, cookies collect data to enhance your experience and personalize the content and advertising you see.
Visit our Privacy Policy to learn more. By continuing to use the site, you agree to this use of cookies and data.
  • In Österreich
  • Länderverzeichnis
  • Für 7 Tage
  • Wassertemperatur
  • Satellitenkarten
  • Wetterkarte
  • News
  • Widgets
  • user-avatar
    Anmelden

    Stündliche Wetter Chyzhychi

    Heute, 24 April, Mittwoch

    Zeit Temperatur Niederschläge Wind Luftdruck Luftfeuchtigkeit
    00:00 +8°C° 0 mm 7 m/S 737 mmHg 51%
    01:00 +8°C° 0 mm 7 m/S 737 mmHg 51%
    02:00 +9°C° 0 mm 5 m/S 737 mmHg 55%
    03:00 +8°C° 0 mm 5 m/S 737 mmHg 56%
    04:00 +7°C° 0 mm 5 m/S 737 mmHg 58%
    05:00 +7°C° 0 mm 5 m/S 737 mmHg 60%
    06:00 +7°C° 0 mm 6 m/S 737 mmHg 61%
    07:00 +8°C° 0 mm 6 m/S 737 mmHg 62%
    08:00 +8°C° 0 mm 7 m/S 738 mmHg 66%
    09:00 +9°C° 0 mm 7 m/S 738 mmHg 64%
    10:00 +11°C° 0 mm 7 m/S 738 mmHg 62%
    11:00 +12°C° 0 mm 8 m/S 738 mmHg 59%
    12:00 +14°C° 0 mm 7 m/S 738 mmHg 58%
    13:00 +15°C° 0 mm 7 m/S 738 mmHg 57%
    14:00 +16°C° 0 mm 7 m/S 738 mmHg 56%
    15:00 +16°C° 0 mm 7 m/S 737 mmHg 58%
    16:00 +16°C° 0 mm 7 m/S 737 mmHg 60%
    17:00 +16°C° 0 mm 7 m/S 737 mmHg 62%
    18:00 +15°C° 0 mm 7 m/S 737 mmHg 64%
    19:00 +12°C° 0 mm 7 m/S 737 mmHg 65%
    20:00 +11°C° 0 mm 6 m/S 737 mmHg 67%
    21:00 +10°C° 0 mm 6 m/S 737 mmHg 69%
    22:00 +9°C° 0 mm 5 m/S 737 mmHg 71%
    23:00 +9°C° 0 mm 5 m/S 737 mmHg 73%

    Morgen, 25 April, Donnerstag

    Zeit Temperatur Niederschläge Wind Luftdruck Luftfeuchtigkeit
    00:00 +8°C° 0 mm 5 m/S 737 mmHg 75%
    01:00 +8°C° 0 mm 4 m/S 737 mmHg 77%
    02:00 +7°C° 0 mm 4 m/S 737 mmHg 79%
    03:00 +7°C° 0 mm 4 m/S 737 mmHg 78%
    04:00 +8°C° 0 mm 4 m/S 737 mmHg 78%
    05:00 +8°C° 0 mm 4 m/S 737 mmHg 78%
    06:00 +10°C° 0 mm 4 m/S 737 mmHg 77%
    07:00 +11°C° 0 mm 4 m/S 737 mmHg 76%
    08:00 +12°C° 0 mm 5 m/S 737 mmHg 75%
    09:00 +13°C° 0.1 mm 4 m/S 737 mmHg 74%
    10:00 +14°C° 0.1 mm 4 m/S 737 mmHg 74%
    11:00 +15°C° 0.1 mm 4 m/S 737 mmHg 73%
    12:00 +15°C° 0.2 mm 4 m/S 737 mmHg 73%
    13:00 +17°C° 0.2 mm 4 m/S 737 mmHg 73%
    14:00 +17°C° 0.2 mm 5 m/S 736 mmHg 73%
    15:00 +17°C° 0 mm 5 m/S 736 mmHg 70%
    16:00 +19°C° 0 mm 5 m/S 736 mmHg 68%
    17:00 +20°C° 0 mm 5 m/S 736 mmHg 65%
    18:00 +19°C° 0.1 mm 4 m/S 736 mmHg 71%
    19:00 +17°C° 0.1 mm 4 m/S 735 mmHg 77%
    20:00 +14°C° 0.1 mm 4 m/S 735 mmHg 82%
    21:00 +14°C° 0 mm 3 m/S 735 mmHg 85%
    22:00 +13°C° 0 mm 3 m/S 735 mmHg 88%
    23:00 +12°C° 0 mm 3 m/S 735 mmHg 91%

    übermorgen, 26 April, Freitag

    Zeit Temperatur Niederschläge Wind Luftdruck Luftfeuchtigkeit
    00:00 +11°C° 0 mm 3 m/S 735 mmHg 91%
    01:00 +11°C° 0 mm 3 m/S 735 mmHg 91%
    02:00 +11°C° 0 mm 3 m/S 735 mmHg 91%
    03:00 +11°C° 0 mm 3 m/S 735 mmHg 91%
    04:00 +11°C° 0 mm 3 m/S 735 mmHg 90%
    05:00 +11°C° 0 mm 3 m/S 734 mmHg 90%
    06:00 +12°C° 0 mm 3 m/S 734 mmHg 85%
    07:00 +14°C° 0 mm 4 m/S 734 mmHg 80%
    08:00 +15°C° 0 mm 4 m/S 734 mmHg 76%
    09:00 +18°C° 0 mm 4 m/S 734 mmHg 69%
    10:00 +20°C° 0 mm 4 m/S 734 mmHg 63%
    11:00 +22°C° 0 mm 5 m/S 734 mmHg 57%
    12:00 +23°C° 0 mm 5 m/S 733 mmHg 54%
    13:00 +25°C° 0 mm 5 m/S 733 mmHg 50%
    14:00 +26°C° 0 mm 6 m/S 733 mmHg 47%
    15:00 +26°C° 0 mm 5 m/S 732 mmHg 50%
    16:00 +25°C° 0 mm 5 m/S 732 mmHg 53%
    17:00 +25°C° 0 mm 4 m/S 732 mmHg 56%
    18:00 +22°C° 0.3 mm 4 m/S 731 mmHg 62%
    19:00 +20°C° 0.3 mm 3 m/S 731 mmHg 69%
    20:00 +18°C° 0.3 mm 3 m/S 731 mmHg 75%
    21:00 +17°C° 0.7 mm 3 m/S 731 mmHg 79%
    22:00 +16°C° 0.7 mm 3 m/S 731 mmHg 82%
    23:00 +14°C° 0.7 mm 3 m/S 731 mmHg 85%

    27 April, Samstag

    Zeit Temperatur Niederschläge Wind Luftdruck Luftfeuchtigkeit
    00:00 +14°C° 0 mm 3 m/S 731 mmHg 85%
    01:00 +14°C° 0 mm 3 m/S 731 mmHg 85%
    02:00 +13°C° 0 mm 3 m/S 730 mmHg 85%
    03:00 +14°C° 0 mm 2 m/S 730 mmHg 85%
    04:00 +14°C° 0 mm 2 m/S 730 mmHg 84%
    05:00 +14°C° 0 mm 2 m/S 730 mmHg 84%
    06:00 +16°C° 0 mm 2 m/S 730 mmHg 80%
    07:00 +17°C° 0 mm 2 m/S 731 mmHg 76%
    08:00 +19°C° 0 mm 2 m/S 731 mmHg 72%
    09:00 +20°C° 0 mm 2 m/S 731 mmHg 67%
    10:00 +23°C° 0 mm 1 m/S 731 mmHg 61%
    11:00 +24°C° 0 mm 1 m/S 731 mmHg 55%
    12:00 +24°C° 1.2 mm 1 m/S 730 mmHg 56%
    13:00 +24°C° 1.2 mm 2 m/S 730 mmHg 56%
    14:00 +24°C° 1.2 mm 2 m/S 729 mmHg 56%
    15:00 +21°C° 3.8 mm 2 m/S 729 mmHg 66%
    16:00 +19°C° 3.8 mm 3 m/S 728 mmHg 76%
    17:00 +17°C° 3.8 mm 3 m/S 728 mmHg 87%
    18:00 +17°C° 5.4 mm 3 m/S 728 mmHg 89%
    19:00 +16°C° 5.4 mm 3 m/S 728 mmHg 91%
    20:00 +14°C° 5.4 mm 3 m/S 728 mmHg 94%
    21:00 +15°C° 0.3 mm 2 m/S 728 mmHg 94%
    22:00 +15°C° 0.3 mm 2 m/S 728 mmHg 94%
    23:00 +15°C° 0.3 mm 1 m/S 728 mmHg 94%

    28 April, Sonntag

    Zeit Temperatur Niederschläge Wind Luftdruck Luftfeuchtigkeit
    00:00 +14°C° 0 mm 1 m/S 728 mmHg 94%
    01:00 +14°C° 0 mm 2 m/S 728 mmHg 95%
    02:00 +13°C° 0 mm 2 m/S 728 mmHg 95%
    03:00 +12°C° 0.1 mm 3 m/S 728 mmHg 95%
    04:00 +12°C° 0.1 mm 3 m/S 728 mmHg 95%
    05:00 +12°C° 0.1 mm 4 m/S 728 mmHg 95%
    06:00 +12°C° 0.1 mm 4 m/S 728 mmHg 95%
    07:00 +12°C° 0.1 mm 4 m/S 728 mmHg 95%
    08:00 +12°C° 0.1 mm 4 m/S 729 mmHg 94%
    09:00 +12°C° 0.3 mm 4 m/S 729 mmHg 94%
    10:00 +12°C° 0.3 mm 4 m/S 729 mmHg 94%
    11:00 +12°C° 0.3 mm 3 m/S 729 mmHg 93%
    12:00 +12°C° 0.2 mm 4 m/S 729 mmHg 93%
    13:00 +11°C° 0.2 mm 6 m/S 729 mmHg 93%
    14:00 +10°C° 0.2 mm 7 m/S 729 mmHg 92%
    15:00 +10°C° 0.1 mm 7 m/S 729 mmHg 92%
    16:00 +9°C° 0.1 mm 7 m/S 729 mmHg 91%
    17:00 +9°C° 0.1 mm 7 m/S 729 mmHg 90%
    18:00 +9°C° 0.1 mm 6 m/S 729 mmHg 91%
    19:00 +9°C° 0.1 mm 5 m/S 729 mmHg 92%
    20:00 +10°C° 0.1 mm 4 m/S 729 mmHg 94%
    21:00 +10°C° 0 mm 4 m/S 729 mmHg 94%
    22:00 +10°C° 0 mm 4 m/S 729 mmHg 94%
    23:00 +9°C° 0 mm 3 m/S 729 mmHg 95%

    29 April, Montag

    Zeit Temperatur Niederschläge Wind Luftdruck Luftfeuchtigkeit
    00:00 +9°C° 0 mm 3 m/S 729 mmHg 95%
    01:00 +9°C° 0 mm 3 m/S 729 mmHg 95%
    02:00 +9°C° 0 mm 3 m/S 729 mmHg 96%
    03:00 +9°C° 0 mm 2 m/S 729 mmHg 96%
    04:00 +9°C° 0 mm 2 m/S 729 mmHg 96%
    05:00 +9°C° 0 mm 2 m/S 729 mmHg 96%
    06:00 +10°C° 0 mm 2 m/S 729 mmHg 94%
    07:00 +11°C° 0 mm 1 m/S 730 mmHg 92%
    08:00 +12°C° 0 mm 1 m/S 730 mmHg 90%
    09:00 +13°C° 0 mm 1 m/S 730 mmHg 88%
    10:00 +13°C° 0 mm 1 m/S 730 mmHg 86%
    11:00 +14°C° 0 mm 1 m/S 730 mmHg 83%
    12:00 +15°C° 0 mm 1 m/S 730 mmHg 82%
    13:00 +15°C° 0 mm 1 m/S 730 mmHg 80%
    14:00 +16°C° 0 mm 1 m/S 730 mmHg 79%
    15:00 +16°C° 0.5 mm 2 m/S 730 mmHg 79%
    16:00 +16°C° 0.5 mm 3 m/S 730 mmHg 79%
    17:00 +17°C° 0.5 mm 4 m/S 730 mmHg 78%
    18:00 +14°C° 0.4 mm 5 m/S 730 mmHg 83%
    19:00 +13°C° 0.4 mm 5 m/S 731 mmHg 87%
    20:00 +10°C° 0.4 mm 5 m/S 731 mmHg 91%
    21:00 +10°C° 0 mm 5 m/S 731 mmHg 91%
    22:00 +11°C° 0 mm 4 m/S 731 mmHg 91%
    23:00 +10°C° 0 mm 4 m/S 731 mmHg 92%
    Mehr zeigen